Portada
Imágenes satélite Pronóstico 10 díasClimaPredicción Marítima Ciclones Rayo AeropuertosFAQ Noticias Acerca
El tiempo : Europa África América del Norte América del Sur Asia Australia-Oceanía Otros
Idiomas Contacto

Chichén Itzá, México

Aeropuerto Internacional de Kaua

latitud: 20-38-30N, longitud: 088-26-58W, altitud: 31 m


METAR: MMCT 271441Z 10008KT 8SM SCT020 31/22 A3004 RMK 8/400 MSGTX MMMD
TAF: falta

Hora: 10:43 (15:43 UTC)

Observación

El informe se hizo hace 1 hora y 2 minutos, a las 14:41 UTC
Viento 8 kt del este
Temperatura 31°C
Humedad 59%
Presión 1017 hPa
Visibilidad: 12.9 km
Nubes dispersas a una altura de 2000 ft

Cambiar las unidades
La información que se ofrece en estas páginas está sujeta a una cláusula de exención de responsabilidad
El tiempo : Europa África América del Norte América del Sur Asia Australia-Oceanía Otros
Imágenes satélite Pronóstico 10 díasClimaPredicción Marítima Ciclones Rayo AeropuertosFAQ Idiomas Contacto Noticias Acerca